W0ANA Weather Reports


time (UTC)temp
F
wind
direction
speed
knots
gust
knots
rain 1hr
in
rain 24hr
in
rain mn
in
humidity
%
barometer
mb
20240518043053 67 188 0.0 5.2 0.00 0.12 0.12 78 1000.7
20240518041552 68 79 0.0 7.8 0.00 0.12 0.12 71 1000.8
20240518040052 68 72 0.0 5.2 0.00 0.12 0.12 70 1000.9
20240518034555 67 202 0.0 3.5 0.00 0.12 0.12 72 1001.1
20240518033056 67 176 0.0 7.8 0.00 0.12 0.12 74 1001.0
20240518031548 67 194 0.0 7.8 0.00 0.12 0.12 75 1001.1
20240518030045 67 188 0.0 7.0 0.00 0.12 0.12 76 1001.2
20240518023046 66 212 1.7 7.8 0.00 0.12 0.12 77 1001.3
20240518021545 67 174 2.6 10.4 0.00 0.12 0.12 78 1001.3
20240518020010 68 162 1.7 11.3 0.00 0.12 0.12 74 1000.9
20240518014510 67 203 1.7 8.7 0.01 0.12 0.12 75 1000.9
20240518013011 67 161 0.0 6.1 0.01 0.12 0.12 77 1000.9
20240518011515 67 194 1.7 10.4 0.03 0.12 0.12 78 1001.8
20240518010047 66 197 4.3 12.2 0.09 0.12 0.12 77 1001.9
20240518004551 65 174 1.7 8.7 0.09 0.11 0.11 78 1000.1
20240518003054 67 250 0.9 7.0 0.09 0.11 0.11 80 1002.1
20240518001547 68 179 0.0 2.6 0.07 0.09 0.09 75 1002.2
20240518000019 73 200 0.0 9.6 0.01 0.03 0.03 60 1002.2
20240517234519 77 229 0.0 3.5 0.00 0.02 0.02 49 1000.7
20240517233020 81 203 0.0 4.3 0.00 0.02 0.02 40 1000.3
20240517231534 82 205 0.9 5.2 0.00 0.02 0.02 37 999.6
20240517230015 83 193 4.3 8.7 0.00 0.02 0.02 35 999.7
20240517224513 84 188 2.6 7.0 0.00 0.02 0.02 35 999.3
20240517223021 84 226 0.9 8.7 0.00 0.02 0.02 37 999.5
20240517221515 85 156 1.7 8.7 0.00 0.02 0.02 37 999.7
20240517220010 83 176 0.0 7.0 0.00 0.02 0.02 40 999.7
20240517214506 85 191 6.1 11.3 0.00 0.02 0.02 38 1000.0
20240517213003 85 158 0.0 7.0 0.00 0.02 0.02 38 1000.1
20240517211501 85 272 3.5 7.8 0.00 0.02 0.02 36 1000.2
20240517210054 85 201 0.9 7.8 0.00 0.02 0.02 39 1000.3
20240517204553 84 257 1.7 8.7 0.00 0.02 0.02 38 1000.3
20240517204511 84 117 1.7 8.7 0.00 0.02 0.02 38 1000.3
20240517203058 84 238 0.9 6.1 0.00 0.02 0.02 39 1000.5
20240517201600 84 132 1.7 8.7 0.00 0.02 0.02 39 1000.6
20240517200056 84 220 3.5 11.3 0.00 0.02 0.02 38 1000.8
20240517194544 83 192 1.7 9.6 0.00 0.02 0.02 40 1000.8